Regional Weather Roundup
Issued by NWS Cleveland, OH

Home | Current Version | Previous Version | Text Only | Print | Product List | Glossary On
Versions: 1 2 3 4 5 6 7 8 9 10 11 12 13 14 15 16 17 18 19 20 21 22 23 24 25 26 27 28 29 30 31 32 33 34 35 36 37 38 39 40 41 42 43 44 45 46 47 48 49 50
000
ASUS41 KCLE 191100
RWRCLE
OHIO REGIONAL WEATHER ROUNDUP
NATIONAL WEATHER SERVICE WILMINGTON, OH
700 AM EDT FRI SEP 19 2014

NOTE: "FAIR" INDICATES FEW OR NO CLOUDS BELOW 12,000 FEET WITH NO
SIGNIFICANT WEATHER AND/OR OBSTRUCTIONS TO VISIBILITY.

OHZ001>008-015>018-024>027-034-035-043-044-191200-
   NORTHWEST OHIO

CITY           SKY/WX    TMP DP  RH WIND       PRES   REMARKS
DEFIANCE       CLEAR     48  46  93 NE3       30.23R FOG
FINDLAY        CLEAR     51  49  92 E6        30.21R FOG
TOLEDO EXPRESS CLEAR     45  44  97 CALM      30.23R FOG
TOLEDO METCALF CLEAR     48  45  89 E3        30.23S
LIMA           CLEAR     50  47  89 E6        30.20R
$$

OHZ009>014-019>023-028>033-038-089-191200-
   NORTHEAST OHIO

CITY           SKY/WX    TMP DP  RH WIND       PRES   REMARKS
CLE-HOPKINS    PTCLDY    47  45  93 S3        30.25R
CLE-LAKEFRONT  PTCLDY    52  48  86 MISG      30.22R
CUY CO. ARPT   PTCLDY    52  48  87 SE5       30.23
LORAIN-ELYRIA  CLEAR     47  43  86 S3        30.24R
ASHTABULA      PTCLDY    43  41  93 CALM      30.25R FOG
AKRON-CANTON   PTCLDY    47  44  90 NE5       30.22R FOG
WOOSTER        PTCLDY    41  39  93 CALM      30.23R FOG
MANSFIELD      CLEAR     47  46  97 CALM      30.22R FOG
YOUNGSTOWN     PTCLDY    43  42  97 E6        30.23R FOG
$$

OHZ042-051>053-060>062-070>072-077>081-191200-
  SOUTHWEST OHIO

CITY           SKY/WX    TMP DP  RH WIND       PRES   REMARKS
CINC-COVINGTON CLEAR     54  48  80 E9        30.16R
CINC-LUNKEN    CLEAR     46  46 100 CALM      30.18R
HAMILTON       CLEAR     46  45  96 W3        30.18R
DAYTON         NOT AVBL
WRIGHT-PAT AFB CLEAR     50  48  93 N3        30.18S
DAYTON GENERAL CLEAR     51  48  89 E8        30.16S
WILMINGTON     CLEAR     48  45  89 E7        30.17S FOG
$$

OHZ036-037-039>041-045>050-054>059-063>069-073>076-082>088-191200-
  CENTRAL AND SOUTHEAST OHIO

CITY           SKY/WX    TMP DP  RH WIND       PRES   REMARKS
COLUMBUS       CLEAR     53  47  79 E5        30.19R
OSU AIRPORT    CLEAR     48  45  89 E5        30.19S
BOLTON FIELD   NOT AVBL
RICKENBACK AFB NOT AVBL
NEWARK         CLEAR     47  45  93 NE3       30.20S FOG
MARION         CLEAR     44  42  93 E5        30.21S FOG
LANCASTER      CLEAR     42  40  92 CALM      30.19F FOG
ZANESVILLE     CLEAR     47  45  93 N3        30.20S FOG
NEW PHILLY     MOCLDY    43  42  97 CALM      30.23R
$$



USA.gov is the U.S. government's official web portal to all federal, state and local government web resources and services.